Renton, WA
on Thursday, January 24, 2013

Thursday
Previous Day Next Day
Daily Summary
 ActualAverage (KSEA)Record (KSEA)
Temperature
Mean Temperature °F 43°F  
Max Temperature 46°F 48°F 58°F (1995)
Min Temperature 34°F 37°F 10°F (1950)
Degree Days
Heating Degree Days 25 22  
Month to date heating degree days 556  
Since 1 July heating degree days 2494  
Cooling Degree Days 0 0  
Month to date cooling degree days 0  
Year to date cooling degree days 0  
Moisture
Dew Point 38°F   
Average Humidity 89    
Maximum Humidity 100    
Minimum Humidity 63    
Precipitation
Precipitation 0.16 in 0.16 in 1.36 in (1984)
Month to date precipitation 4.45  
Year to date precipitation 4.45  
Snow
Snow 0.00 in in 3.50 in (1972)
Month to date snowfall  
Since 1 July snowfall  
Snow Depth in   
Wind
Wind Speed 4 mph   
Max Wind Speed 8 mph   
Max Gust Speed mph   
Visibility 9 miles   
Events Rain   

Key: T is trace of precipitation, MM is missing value
Source: NWS Daily Summary
Time(PST)TemperatureDew PointHumidity Pressure Visibility Wind DirectionWind SpeedGust SpeedPrecipitationEvents Conditions
12:31 AM 42.8°F 39.2°F 87% 30.16 in 10.0 miles SSE 8.1 mph - N/A   Overcast
12:53 AM 42.1°F 39.0°F 89% 30.18 in 10.0 miles South 6.9 mph - N/A   Overcast
1:04 AM 42.8°F 39.2°F 87% 30.17 in 10.0 miles South 6.9 mph - N/A   Overcast
1:33 AM 41.0°F 39.2°F 93% 30.18 in 10.0 miles ESE 3.5 mph - N/A   Scattered Clouds
1:51 AM 41.0°F 37.4°F 87% 30.19 in 10.0 miles ESE 3.5 mph - N/A   Mostly Cloudy
1:53 AM 41.0°F 37.9°F 89% 30.20 in 10.0 miles Calm Calm - N/A   Mostly Cloudy
2:53 AM 39.9°F 37.9°F 93% 30.22 in 10.0 miles Calm Calm - N/A   Overcast
3:39 AM 37.4°F 37.4°F 100% 30.20 in 10.0 miles ESE 3.5 mph - N/A   Scattered Clouds
3:53 AM 37.9°F 37.0°F 97% 30.22 in 10.0 miles Calm Calm - N/A   Partly Cloudy
4:53 AM 37.0°F 36.0°F 96% 30.21 in 10.0 miles Calm Calm - N/A   Partly Cloudy
5:53 AM 36.0°F 34.0°F 93% 30.23 in 10.0 miles Calm Calm - N/A   Partly Cloudy
6:53 AM 34.0°F 33.1°F 96% 30.22 in 10.0 miles South 3.5 mph - N/A   Clear
7:53 AM 34.0°F 33.1°F 96% 30.22 in 10.0 miles Calm Calm - N/A   Clear
8:53 AM 34.0°F 33.1°F 96% 30.21 in 10.0 miles Calm Calm - N/A   Clear
9:53 AM 37.9°F 35.1°F 89% 30.20 in 10.0 miles SSE 4.6 mph - N/A   Partly Cloudy
10:53 AM 41.0°F 37.0°F 86% 30.19 in 10.0 miles SE 3.5 mph - N/A   Clear
11:53 AM 43.0°F 37.0°F 80% 30.17 in 10.0 miles Calm Calm - N/A   Clear
12:53 PM 45.0°F 37.0°F 74% 30.14 in 10.0 miles Calm Calm - N/A   Partly Cloudy
1:53 PM 46.0°F 35.1°F 66% 30.12 in 10.0 miles Calm Calm - N/A   Overcast
2:53 PM 46.0°F 34.0°F 63% 30.10 in 10.0 miles SE 3.5 mph - N/A   Overcast
3:53 PM 46.0°F 35.1°F 66% 30.10 in 10.0 miles WSW 3.5 mph - N/A   Overcast
4:53 PM 43.0°F 39.0°F 86% 30.12 in 6.0 miles Calm Calm - 0.01 in Rain Light Rain
5:53 PM 43.0°F 41.0°F 93% 30.12 in 6.0 miles Calm Calm - 0.05 in Rain Light Rain
6:53 PM 42.1°F 41.0°F 96% 30.11 in 4.0 miles Calm Calm - 0.05 in Rain Light Rain
7:53 PM 42.1°F 41.0°F 96% 30.11 in 5.0 miles ESE 6.9 mph - 0.03 in Rain Light Rain
8:53 PM 42.1°F 39.9°F 92% 30.09 in 10.0 miles East 3.5 mph - 0.00 in   Overcast
9:53 PM 42.1°F 39.9°F 92% 30.08 in 10.0 miles SE 5.8 mph - 0.00 in   Overcast
10:53 PM 42.1°F 39.9°F 92% 30.08 in 10.0 miles East 5.8 mph - 0.00 in   Overcast
11:38 PM 42.8°F 41.0°F 93% 30.06 in 3.0 miles Calm Calm - 0.01 in Rain Light Rain
11:50 PM 42.8°F 41.0°F 93% 30.07 in 2.5 miles Calm Calm - 0.01 in Rain Light Rain
11:53 PM 42.1°F 41.0°F 96% 30.08 in 2.5 miles Calm Calm - 0.02 in Rain Light Rain
Moon Phase
Jan. 24 Jan. 26 Feb. 03 Feb. 10 Feb. 17
Sunrise:07:44 AM (PST) Moon Rise:03:03 PM (PST)
Sunset:04:58 PM (PST) Moon Set:05:48 AM (PST)

Copyright © 2014 The Weather Underground, Inc.